Chico, CA

7:44 AM PST on February 24, 2017 (GMT -0800)
Chico Municipal

Weather History for KCIC - April, 2013

Change the Weather History Date:

Monday, April 8, 2013

  Actual Average (KOVE) Record (KOVE)
Temperature  
Mean Temperature 56 °F -  
Max Temperature 68 °F 69 °F 91 °F (1989)
Min Temperature 44 °F 45 °F 36 °F (2001)
Degree Days  
Heating Degree Days 9    
Growing Degree Days 6 (Base 50)    
Moisture  
Dew Point 36 °F    
Average Humidity 58    
Maximum Humidity 100    
Minimum Humidity 23    
Precipitation  
Precipitation 0.14 in - - ()
Sea Level Pressure  
Sea Level Pressure 29.91 in    
Wind  
Wind Speed 13 mph (NNW)    
Max Wind Speed 29 mph    
Max Gust Speed 37 mph    
Visibility 10 miles    
Events      
Averages and records for this station are not official NWS values.
T = Trace of Precipitation, MM = Missing Value Source: NWS Daily Summary

Daily Weather History Graph

Daily Weather History Graph

Search for Another Location

Airport or City:

Trip Planner

Search our weather history database for the weather conditions in past years. The results will help you decide how hot, cold, wet, or windy it might be!

Date:

Astronomy

Apr. 08, 2013 Rise Set
Actual Time 6:39 AM PDT 7:38 PM PDT
Civil Twilight 6:12 AM PDT 8:06 PM PDT
Nautical Twilight 5:39 AM PDT 8:39 PM PDT
Astronomical Twilight 5:05 AM PDT 9:13 PM PDT
Moon 5:32 AM PDT (4/8) 6:18 PM PDT (4/8)
Length of Visible Light 13h 54m
Length of Day
12h 59m
Waning Crescent, 3% of the Moon is Illuminated
Apr 8
Waning Crescent
Apr 10
New
Apr 18
First Quarter
Apr 25
Full
May 2
Last Quarter

Hourly Weather History & Observations

Time (PDT) Temp. Windchill Dew Point Humidity Pressure Visibility Wind Dir Wind Speed Gust Speed Precip Events Conditions
12:15 AM 50.0 °F - 48.2 °F 94% 29.77 in 10.0 mi East 6.9 mph - N/A   Overcast
12:35 AM 50.0 °F - 46.4 °F 87% 29.78 in 5.0 mi NE 9.2 mph - 0.05 in   Overcast
12:55 AM 48.2 °F - 44.6 °F 87% 29.78 in 5.0 mi East 8.1 mph - 0.13 in   Mostly Cloudy
1:15 AM 48.2 °F - 44.6 °F 87% 29.78 in 10.0 mi SE 5.8 mph - 0.01 in   Overcast
1:35 AM 48.2 °F - 44.6 °F 87% 29.79 in 10.0 mi ENE 3.5 mph - 0.01 in   Overcast
1:55 AM 48.2 °F - 44.6 °F 87% 29.79 in 10.0 mi NNE 4.6 mph - 0.01 in   Overcast
2:15 AM 48.2 °F - 44.6 °F 87% 29.79 in 10.0 mi NNW 6.9 mph - N/A   Overcast
2:35 AM 46.4 °F 42.9 °F 44.6 °F 93% 29.79 in 10.0 mi NNW 6.9 mph - N/A   Scattered Clouds
2:55 AM 46.4 °F 42.4 °F 46.4 °F 100% 29.80 in 10.0 mi NW 8.1 mph - N/A   Clear
3:15 AM 46.4 °F 40.1 °F 46.4 °F 100% 29.79 in 10.0 mi NNW 15.0 mph - N/A   Partly Cloudy
3:35 AM 46.4 °F 40.1 °F 44.6 °F 93% 29.80 in 10.0 mi NNW 15.0 mph - N/A   Clear
3:55 AM 46.4 °F 39.5 °F 42.8 °F 87% 29.81 in 10.0 mi NW 17.3 mph - N/A   Clear
4:15 AM 46.4 °F 39.8 °F 41.0 °F 81% 29.82 in 10.0 mi NNW 16.1 mph - N/A   Clear
4:35 AM 46.4 °F 40.4 °F 41.0 °F 81% 29.82 in 10.0 mi NNW 13.8 mph - N/A   Clear
4:55 AM 46.4 °F 40.7 °F 39.2 °F 76% 29.83 in 10.0 mi North 12.7 mph 17.3 mph N/A   Clear
5:15 AM 44.6 °F 37.2 °F 37.4 °F 76% 29.83 in 10.0 mi NNW 17.3 mph - N/A   Clear
5:35 AM 46.4 °F 40.7 °F 35.6 °F 66% 29.84 in 10.0 mi North 12.7 mph - N/A   Clear
5:55 AM 46.4 °F 39.2 °F 35.6 °F 66% 29.85 in 10.0 mi North 18.4 mph 24.2 mph N/A   Clear
6:15 AM 46.4 °F 40.4 °F 35.6 °F 66% 29.87 in 10.0 mi NNW 13.8 mph - N/A   Clear
6:35 AM 46.4 °F 41.1 °F 33.8 °F 62% 29.89 in 10.0 mi North 11.5 mph 18.4 mph N/A   Clear
6:55 AM 44.6 °F 38.8 °F 33.8 °F 66% 29.89 in 10.0 mi North 11.5 mph - N/A   Clear
6:56 AM 44.6 °F 38.8 °F 33.8 °F 66% 29.89 in 80.0 mi NNW 11.5 mph - N/A   Scattered Clouds
7:15 AM 46.4 °F 39.0 °F 32.0 °F 57% 29.90 in 10.0 mi NNW 19.6 mph 23.0 mph N/A   Clear
7:35 AM 46.4 °F 37.9 °F 32.0 °F 57% 29.92 in 10.0 mi NNW 25.3 mph 31.1 mph N/A   Clear
7:50 AM 46.4 °F 38.7 °F 32.0 °F 57% 29.93 in 80.0 mi NNW 20.7 mph 32.2 mph N/A   Partly Cloudy
10:47 AM 57.2 °F - 32.0 °F 38% 29.97 in 80.0 mi NNW 28.8 mph 34.5 mph N/A   Partly Cloudy
11:58 AM 59.0 °F - 32.0 °F 36% 29.97 in 80.0 mi NNW 23.0 mph 34.5 mph N/A   Partly Cloudy
12:52 PM 62.6 °F - 32.0 °F 32% 29.96 in 80.0 mi NW 23.0 mph 34.5 mph N/A   Partly Cloudy
1:47 PM 64.4 °F - 32.0 °F 30% 29.94 in 80.0 mi NW 23.0 mph 36.8 mph N/A   Partly Cloudy
2:47 PM 66.2 °F - 32.0 °F 28% 29.93 in 80.0 mi NW 23.0 mph 36.8 mph N/A   Partly Cloudy
3:47 PM 66.2 °F - 30.2 °F 26% 29.93 in 80.0 mi NNW 23.0 mph 34.5 mph N/A   Partly Cloudy
4:47 PM 68.0 °F - 28.4 °F 23% 29.92 in 80.0 mi NNW 23.0 mph 36.8 mph N/A   Scattered Clouds
5:47 PM 66.2 °F - 26.6 °F 23% 29.93 in 80.0 mi NW 23.0 mph 32.2 mph N/A   Partly Cloudy
6:47 PM 66.2 °F - 26.6 °F 23% 29.95 in 80.0 mi North 28.8 mph 34.5 mph N/A   Partly Cloudy
7:55 PM 60.8 °F - 28.4 °F 29% 29.98 in 10.0 mi NNW 11.5 mph - N/A   Clear
8:15 PM 59.0 °F - 32.0 °F 36% 29.99 in 10.0 mi NNW 13.8 mph - N/A   Clear
8:35 PM 57.2 °F - 32.0 °F 38% 30.00 in 10.0 mi NNW 16.1 mph - N/A   Clear
8:55 PM 57.2 °F - 30.2 °F 36% 30.01 in 10.0 mi NNW 17.3 mph - N/A   Clear
9:15 PM 57.2 °F - 32.0 °F 38% 30.02 in 10.0 mi NNW 16.1 mph - N/A   Clear
9:35 PM 55.4 °F - 32.0 °F 41% 30.03 in 10.0 mi NNW 13.8 mph - N/A   Clear
9:55 PM 55.4 °F - 32.0 °F 41% 30.04 in 10.0 mi NNW 15.0 mph - N/A   Clear
10:15 PM 55.4 °F - 32.0 °F 41% 30.05 in 10.0 mi NNW 12.7 mph - N/A   Clear
10:35 PM 53.6 °F - 32.0 °F 44% 30.05 in 10.0 mi NNW 12.7 mph - N/A   Clear
10:55 PM 53.6 °F - 32.0 °F 44% 30.05 in 10.0 mi NW 13.8 mph - N/A   Clear
11:15 PM 53.6 °F - 32.0 °F 44% 30.06 in 10.0 mi NNW 13.8 mph - N/A   Clear
11:35 PM 53.6 °F - 32.0 °F 44% 30.06 in 10.0 mi NNW 16.1 mph - N/A   Clear
11:55 PM 51.8 °F - 32.0 °F 47% 30.07 in 10.0 mi NNW 16.1 mph 20.7 mph N/A   Clear